This demonstration page uses our WeatherBlox Daily Observations layout. Learn more.

39.29038, -76.61219

Hourly Observations for June 5, 2019

Temp ( °F °C ) Dew Point ( °F °C ) Humidity (%) Winds ( mph kmh ) Pressure ( in mb ) Visibility ( mi km ) Precip ( " mm )
12:54 am 00:54 undefined 69 20.6 52 11.1 55 55 undefined N/A 30 1016 N/A 0 0
1:54 am 01:54 undefined 69 20.6 51 10.6 53 53 undefined N/A 30 1016 N/A 0 0
2:54 am 02:54 undefined 68 20 51 10.6 55 55 undefined N/A 29.97 1015 N/A 0 0
3:54 am 03:54 undefined 67 19.4 53 11.7 61 61 undefined N/A 29.97 1015 N/A 0 0
4:54 am 04:54 undefined 66 18.9 53 11.7 63 63 undefined N/A 29.94 1014 N/A 0 0
5:54 am 05:54 undefined 65 18.3 53 11.7 66 66 undefined N/A 29.94 1014 N/A 0 0
6:54 am 06:54 undefined 66 18.9 54 12.2 65 65 undefined N/A 29.94 1014 N/A 0 0
7:54 am 07:54 undefined 68 20 55 12.8 63 63 undefined N/A 29.94 1014 N/A 0 0
8:54 am 08:54 undefined 72 22.2 57 13.9 59 59 undefined N/A 29.94 1014 N/A 0 0
9:54 am 09:54 undefined 76 24.4 60 15.6 58 58 undefined N/A 29.91 1013 N/A 0 0
10:54 am 10:54 undefined 79 26.1 60 15.6 52 52 undefined N/A 29.88 1012 N/A 0 0
11:54 am 11:54 undefined 78 25.6 62 16.7 58 58 undefined N/A 29.88 1012 N/A 0 0
12:54 pm 12:54 undefined 82 27.8 65 18.3 56 56 undefined N/A 29.85 1011 N/A 0 0
1:54 pm 13:54 undefined 83 28.3 65 18.3 55 55 undefined N/A 29.83 1010 N/A 0 0
2:54 pm 14:54 undefined 83 28.3 66 18.9 57 57 undefined N/A 29.83 1010 N/A 0 0
3:54 pm 15:54 undefined 82 27.8 66 18.9 58 58 undefined N/A 29.8 1009 N/A 0 0
4:54 pm 16:54 undefined 82 27.8 66 18.9 58 58 undefined N/A 29.77 1008 N/A 0 0
5:54 pm 17:54 undefined 81 27.2 67 19.4 62 62 undefined N/A 29.77 1008 N/A 0 0
6:54 pm 18:54 undefined 81 27.2 66 18.9 61 61 undefined N/A 29.74 1007 N/A 0 0
7:54 pm 19:54 undefined 80 26.7 67 19.4 64 64 undefined N/A 29.74 1007 N/A 0 0
8:54 pm 20:54 undefined 79 26.1 65 18.3 62 62 undefined N/A 29.77 1008 N/A 0 0
9:54 pm 21:54 undefined 78 25.6 65 18.3 64 64 undefined N/A 29.77 1008 N/A 0 0
10:54 pm 22:54 undefined 78 25.6 67 19.4 69 69 undefined N/A 29.77 1008 N/A 0 0
11:54 pm 23:54 undefined 74 23.3 69 20.6 85 85 undefined N/A 29.77 1008 N/A 0.07 1.778

Powered by AerisWeather